Regional Weather Roundup
Issued by NWS

Home | Current Version | Previous Version | Graphics & Text | Print | Product List | Glossary On
Versions: 1 2 3 4 5 6 7 8 9 10 11 12 13 14 15 16 17 18 19 20 21 22 23 24 25 26 27 28 29 30 31 32 33 34 35 36 37 38 39 40 41 42 43 44 45 46 47 48 49 50
000
ASUS43 KDTX 221010
RWRMI
MICHIGAN HOURLY REGIONAL WEATHER ROUNDUP
NATIONAL WEATHER SERVICE DETROIT/PONTIAC MI
600 AM EDT FRI AUG 22 2014

NOTE: "FAIR" INDICATES FEW OR NO CLOUDS BELOW 12,000 FEET WITH NO
SIGNIFICANT WEATHER AND/OR OBSTRUCTION TO VISIBILITY.

MIZ047>049-052>055-059>063-066>070-074>076-081>083-221100-
SOUTHEAST LOWER MICHIGAN

CITY           SKY/WX    TMP DP  RH WIND       PRES   REMARKS
ADRIAN         FOG       70  70 100 SW3       29.98R VSB 1/2
ALMA           CLOUDY    65  64  96 CALM      29.97R FOG
ANN ARBOR      CLOUDY    71  69  93 CALM      29.97R FOG
BAD AXE        MOCLDY    55  55 100 CALM      29.99R FOG
DETROIT CITY   CLEAR     69  65  86 CALM      29.96R
DETROIT        CLOUDY    70  68  93 CALM      29.97R FOG
FLINT          CLOUDY    69  63  81 E3        29.97R
GROSSE ILE     CLOUDY    70  66  88 CALM      29.95R FOG
HILLSDALE      FOG       70  70 100 CALM      29.98S VSB 1/4
HOWELL         CLOUDY    68  68  99 SE5       29.97R FOG

CITY           SKY/WX    TMP DP  RH WIND       PRES   REMARKS
LAMBERTVILLE   CLOUDY    72  70  94 CALM      29.97R
LANSING        CLOUDY    71  69  93 NE3       29.96R FOG
LAPEER         NOT AVBL
MASON          FOG       69  68  98 CALM      29.96R VSB 1/4
MONROE         CLOUDY    72  70  94 CALM      29.94R
MT. CLEMENS    PTCLDY    66  63  88 N5        29.96R
PONTIAC        CLOUDY    67  63  87 CALM      29.97R
PORT HOPE        N/A     65  63  93 E7        29.96S
PORT HURON     CLOUDY    66  64  94 N5        29.97R
TRI CITIES     PTCLDY    67  64  90 E5        29.97R
YPSILANTI      CLOUDY    73  68  84 NE3       29.97R HAZE
$$
MIZ043>046-050>051-056>058-064>065-071>073-077>080-221100-
SOUTHWEST LOWER MICHIGAN

CITY           SKY/WX    TMP DP  RH WIND       PRES   REMARKS
BATTLE CREEK   CLOUDY    71  69  93 S6        29.97R FOG
BENTON HARBOR  MOCLDY    68  67  96 E3        29.91F FOG
BIG RAPIDS     CLOUDY    66  66 100 S3        29.95S
COLDWATER      FOG       69  68  96 CALM      29.97R VSB 1/4
HOLLAND        FOG       70  69  97 SE5       29.94R VSB 1/4
GRAND RAPIDS   CLOUDY    71  71 100 E5        29.94S FOG
KALAMAZOO      FOG       70  68  93 CALM      29.96R VSB 1/4
MARSHALL       CLOUDY    68  67  99 CALM      29.96R FOG
MUSKEGON       CLOUDY    71  68  90 E5        29.93R FOG
$$
MIZ016>042-221100-
NORTHERN LOWER MICHIGAN

CITY           SKY/WX    TMP DP  RH WIND       PRES   REMARKS
ALPENA         FOG       58  57  97 CALM      29.98R VSB 1/2
BEAVER ISLAND  CLOUDY    65  65  97 CALM      29.95S
BELLAIRE       CLOUDY    65  64  93 CALM      29.94R
CADILLAC       CLOUDY    65  64  97 CALM      29.97R
CHARLEVOIX     CLOUDY    68  67  98 SE5       29.97R
FRANKFORT      CLOUDY    68  65  88 CALM      29.93R
GAYLORD        CLOUDY    64  62  93 CALM      29.97F
GRAYLING       MOCLDY    63  63 100 CALM      29.98S
HARBOR SPRINGS CLOUDY    65  64  95 E5        29.95S
HOUGHTON LAKE  CLOUDY    61  61 100 CALM      29.98R FOG
MANISTEE       CLOUDY    66  64  94 E5        29.94R
OSCODA         CLOUDY    58  58  99 CALM      29.97R
PELLSTON       MOCLDY    62  61  96 CALM      29.97S
TRAVERSE CITY  PTCLDY    68  64  87 CALM      29.93S
$$
MIZ007>008-015-221100-
EASTERN UPPER MICHIGAN

CITY           SKY/WX    TMP DP  RH WIND       PRES   REMARKS
KINROSS        MOCLDY    57  57 100 CALM      29.98S
MACKINAC ISLAN PTCLDY    60  60 100 E8        29.96F
NEWBERRY       FOG       54  54 100 NE5       29.96S VSB 1/2
S. S. MARIE    FOG       60  59  96 E3        29.97F VSB 1/2
$$
MIZ004>006-011>014-085-221100-
CENTRAL UPPER MICHIGAN

CITY           SKY/WX    TMP DP  RH WIND       PRES   REMARKS
MANISTIQUE     CLOUDY    62  61  96 NE3       29.95R
ESCANABA       CLOUDY    64  59  82 CALM      29.94R
MENOMINEE      CLOUDY    66  63  88 CALM      29.92R
SAWYER-GWINN   CLOUDY    64  59  85 CALM      29.95S
$$
MIZ001>003-009>011-084-221100-
WESTERN UPPER MICHIGAN

CITY           SKY/WX    TMP DP  RH WIND       PRES   REMARKS
IRON MOUNTAIN  CLOUDY    64  61  90 CALM      29.94R
HOUGHTON       CLOUDY    60  58  92 NE9       29.94S
COPPER HARBOR    N/A     59  56  89 CALM      29.95R
IRONWOOD       CLOUDY    66  64  94 E3        29.90R
$$

ABBREVIATIONS USED IN REMARKS
   TC - TEMPERATURE IN CELSIUS
  WCI - WIND CHILL INDEX
   HX - HEAT INDEX
  VSB - VISIBILITY



USA.gov is the U.S. government's official web portal to all federal, state and local government web resources and services.